| time (UTC) | temp F | wind direction | speed knots | gust knots | rain 1hr in | rain 24hr in | rain mn in | humidity % | barometer mb |
| 20260510044529 | 79 | 155 | 5.2 | 8.7 | 0.00 | 0.00 | 0.00 | 55 | 1006.5 |
| 20260510043027 | 79 | 160 | 6.1 | 10.4 | 0.00 | 0.00 | 0.00 | 55 | 1006.5 |
| 20260510041526 | 79 | 170 | 3.5 | 7.8 | 0.00 | 0.00 | 0.00 | 55 | 1006.5 |
| 20260510040026 | 79 | 186 | 4.3 | 9.6 | 0.00 | 0.00 | 0.00 | 54 | 1006.5 |
| 20260510034526 | 79 | 148 | 5.2 | 8.7 | 0.00 | 0.00 | 0.00 | 54 | 1006.5 |
| 20260510033025 | 79 | 158 | 7.0 | 12.2 | 0.00 | 0.00 | 0.00 | 52 | 1006.3 |
| 20260510031535 | 79 | 184 | 5.2 | 8.7 | 0.00 | 0.00 | 0.00 | 51 | 1006.3 |
| 20260510030030 | 79 | 171 | 5.2 | 8.7 | 0.00 | 0.00 | 0.00 | 49 | 1006.3 |
| 20260510024524 | 80 | 164 | 6.1 | 8.7 | 0.00 | 0.00 | 0.00 | 47 | 1006.2 |
| 20260510023024 | 80 | 156 | 2.6 | 6.1 | 0.00 | 0.00 | 0.00 | 45 | 1006.0 |
| 20260510021529 | 80 | 154 | 4.3 | 7.0 | 0.00 | 0.00 | 0.00 | 45 | 1005.8 |
| 20260510020023 | 81 | 152 | 4.3 | 7.0 | 0.00 | 0.00 | 0.00 | 44 | 1005.7 |
| 20260510014522 | 83 | 146 | 3.5 | 7.0 | 0.00 | 0.00 | 0.00 | 43 | 1005.5 |
| 20260510013022 | 84 | 147 | 5.2 | 7.8 | 0.00 | 0.00 | 0.00 | 41 | 1005.4 |
| 20260510011521 | 86 | 144 | 4.3 | 7.8 | 0.00 | 0.00 | 0.00 | 39 | 1005.2 |
| 20260510010021 | 88 | 144 | 4.3 | 12.2 | 0.00 | 0.00 | 0.00 | 37 | 1005.1 |
| 20260510004521 | 89 | 134 | 5.2 | 10.4 | 0.00 | 0.00 | 0.00 | 34 | 1005.1 |
| 20260510003020 | 90 | 146 | 6.1 | 10.4 | 0.00 | 0.00 | 0.00 | 33 | 1004.9 |
| 20260510001518 | 91 | 155 | 4.3 | 12.2 | 0.00 | 0.00 | 0.00 | 30 | 1005.0 |
| 20260510000022 | 90 | 211 | 4.3 | 12.2 | 0.00 | 0.00 | 0.00 | 30 | 1005.1 |
| 20260509234517 | 90 | 144 | 7.0 | 13.0 | 0.00 | 0.00 | 0.00 | 34 | 1005.0 |
| 20260509233016 | 91 | 180 | 6.1 | 11.3 | 0.00 | 0.00 | 0.00 | 32 | 1005.1 |
| 20260509231514 | 91 | 199 | 4.3 | 11.3 | 0.00 | 0.00 | 0.00 | 33 | 1005.1 |
| 20260509230015 | 91 | 130 | 9.6 | 13.0 | 0.00 | 0.00 | 0.00 | 32 | 1005.1 |
| 20260509224513 | 91 | 147 | 5.2 | 13.0 | 0.00 | 0.00 | 0.00 | 34 | 1005.2 |
| 20260509223018 | 91 | 155 | 4.3 | 15.6 | 0.00 | 0.00 | 0.00 | 33 | 1005.2 |
| 20260509221509 | 91 | 131 | 6.1 | 12.2 | 0.00 | 0.00 | 0.00 | 32 | 1005.2 |
| 20260509220009 | 91 | 194 | 7.8 | 17.4 | 0.00 | 0.00 | 0.00 | 32 | 1005.4 |
| 20260509214506 | 91 | 180 | 5.2 | 13.0 | 0.00 | 0.00 | 0.00 | 33 | 1005.6 |
| 20260509213005 | 91 | 133 | 7.0 | 14.8 | 0.00 | 0.00 | 0.00 | 32 | 1005.7 |
| 20260509211507 | 91 | 183 | 2.6 | 12.2 | 0.00 | 0.00 | 0.00 | 32 | 1005.9 |
| 20260509210109 | 91 | 84 | 4.3 | 12.2 | 0.00 | 0.00 | 0.00 | 34 | 1006.1 |
| 20260509204557 | 91 | 190 | 6.1 | 21.7 | 0.00 | 0.00 | 0.00 | 36 | 1006.4 |
| 20260509203055 | 90 | 153 | 5.2 | 12.2 | 0.00 | 0.00 | 0.00 | 38 | 1006.7 |
| 20260509201552 | 90 | 224 | 4.3 | 12.2 | 0.00 | 0.00 | 0.00 | 38 | 1007.0 |
| 20260509200054 | 89 | 167 | 4.3 | 10.4 | 0.00 | 0.00 | 0.00 | 40 | 1007.2 |
| 20260509194547 | 89 | 206 | 3.5 | 13.0 | 0.00 | 0.00 | 0.00 | 41 | 1007.3 |
| 20260509193046 | 88 | 129 | 6.1 | 15.6 | 0.00 | 0.00 | 0.00 | 41 | 1007.5 |
| 20260509191543 | 88 | 146 | 11.3 | 14.8 | 0.00 | 0.00 | 0.00 | 41 | 1007.7 |
| 20260509190047 | 88 | 155 | 7.0 | 13.0 | 0.00 | 0.00 | 0.00 | 41 | 1007.9 |
| 20260509184538 | 87 | 170 | 2.6 | 13.0 | 0.00 | 0.00 | 0.00 | 44 | 1008.1 |
| 20260509183036 | 86 | 115 | 7.8 | 15.6 | 0.00 | 0.00 | 0.00 | 42 | 1008.3 |
| 20260509181533 | 86 | 168 | 6.1 | 12.2 | 0.00 | 0.00 | 0.00 | 47 | 1008.7 |
| 20260509180029 | 85 | 115 | 10.4 | 13.9 | 0.00 | 0.00 | 0.00 | 49 | 1008.9 |
| 20260509174527 | 84 | 165 | 8.7 | 14.8 | 0.00 | 0.00 | 0.00 | 49 | 1009.1 |
| 20260509173051 | 84 | 157 | 7.0 | 14.8 | 0.00 | 0.00 | 0.00 | 50 | 1009.4 |
| 20260509171527 | 83 | 186 | 7.0 | 13.9 | 0.00 | 0.00 | 0.00 | 53 | 1009.6 |
| 20260509170017 | 83 | 157 | 6.1 | 12.2 | 0.00 | 0.00 | 0.00 | 53 | 1009.7 |
| 20260509164515 | 82 | 135 | 3.5 | 12.2 | 0.00 | 0.00 | 0.00 | 56 | 1009.7 |
| 20260509163015 | 81 | 155 | 7.0 | 13.0 | 0.00 | 0.00 | 0.00 | 58 | 1009.8 |
| 20260509161504 | 81 | 163 | 5.2 | 11.3 | 0.00 | 0.00 | 0.00 | 59 | 1009.9 |
| 20260509154557 | 79 | 148 | 6.1 | 9.6 | 0.00 | 0.00 | 0.00 | 64 | 1010.0 |
| 20260509153054 | 78 | 234 | 2.6 | 7.8 | 0.00 | 0.00 | 0.00 | 69 | 1010.1 |
| 20260509151605 | 77 | 197 | 5.2 | 8.7 | 0.00 | 0.00 | 0.00 | 71 | 1010.2 |
| 20260509150049 | 76 | 209 | 4.3 | 7.8 | 0.00 | 0.00 | 0.00 | 75 | 1010.2 |
| 20260509144539 | 74 | 205 | 0.0 | 1.7 | 0.00 | 0.00 | 0.00 | 82 | 1010.4 |
| 20260509143037 | 72 | 204 | 0.9 | 2.6 | 0.00 | 0.00 | 0.00 | 84 | 1010.6 |
| 20260509141531 | 70 | 204 | 0.9 | 2.6 | 0.00 | 0.00 | 0.00 | 86 | 1010.8 |
| 20260509140026 | 69 | 200 | 1.7 | 4.3 | 0.00 | 0.00 | 0.00 | 90 | 1011.0 |
| 20260509134523 | 67 | 93 | 0.0 | 2.6 | 0.00 | 0.00 | 0.00 | 93 | 1011.1 |
| 20260509133018 | 65 | 92 | 0.0 | 3.5 | 0.00 | 0.00 | 0.00 | 94 | 1011.2 |
| 20260509131513 | 64 | 86 | 0.0 | 2.6 | 0.00 | 0.00 | 0.00 | 94 | 1011.0 |
| 20260509130027 | 62 | 86 | 0.0 | 1.7 | 0.00 | 0.00 | 0.00 | 94 | 1010.9 |
| 20260509124520 | 61 | 86 | 0.0 | 0.9 | 0.00 | 0.00 | 0.00 | 94 | 1010.8 |
| 20260509123001 | 60 | 87 | 0.0 | 1.7 | 0.00 | 0.00 | 0.00 | 93 | 1010.7 |
| 20260509121557 | 59 | 88 | 0.0 | 0.9 | 0.00 | 0.00 | 0.00 | 93 | 1010.4 |
| 20260509120055 | 60 | 88 | 0.0 | 2.6 | 0.00 | 0.00 | 0.00 | 93 | 1010.1 |
| 20260509114625 | 60 | 88 | 0.0 | 1.7 | 0.00 | 0.00 | 0.00 | 93 | 1010.0 |
| 20260509113105 | 61 | 88 | 0.0 | 1.7 | 0.00 | 0.00 | 0.00 | 92 | 1009.7 |
| 20260509111548 | 61 | 88 | 1.7 | 3.5 | 0.00 | 0.00 | 0.00 | 93 | 1009.7 |
| 20260509110056 | 62 | 88 | 0.0 | 3.5 | 0.00 | 0.00 | 0.00 | 93 | 1009.5 |
| 20260509104544 | 62 | 72 | 3.5 | 5.2 | 0.00 | 0.00 | 0.00 | 93 | 1009.4 |
| 20260509103047 | 63 | 178 | 0.0 | 3.5 | 0.00 | 0.00 | 0.00 | 92 | 1009.3 |
| 20260509101555 | 63 | 155 | 3.5 | 7.0 | 0.00 | 0.00 | 0.00 | 92 | 1009.2 |
| 20260509100042 | 63 | 112 | 4.3 | 10.4 | 0.00 | 0.00 | 0.00 | 92 | 1009.6 |
| 20260509094540 | 63 | 95 | 4.3 | 8.7 | 0.00 | 0.00 | 0.00 | 91 | 1009.7 |
| 20260509093038 | 63 | 113 | 2.6 | 6.1 | 0.00 | 0.00 | 0.00 | 90 | 1009.8 |
| 20260509091542 | 63 | 120 | 2.6 | 5.2 | 0.00 | 0.00 | 0.00 | 89 | 1009.6 |
| 20260509090041 | 63 | 122 | 3.5 | 7.0 | 0.00 | 0.00 | 0.00 | 89 | 1009.6 |
| 20260509084534 | 62 | 113 | 2.6 | 5.2 | 0.00 | 0.00 | 0.00 | 88 | 1009.4 |
| 20260509083033 | 63 | 111 | 2.6 | 5.2 | 0.00 | 0.00 | 0.00 | 87 | 1009.7 |
| 20260509081530 | 63 | 111 | 0.0 | 5.2 | 0.00 | 0.00 | 0.00 | 87 | 1009.4 |
| 20260509080027 | 64 | 165 | 1.7 | 3.5 | 0.00 | 0.00 | 0.00 | 86 | 1009.4 |
| 20260509074527 | 64 | 165 | 3.5 | 6.1 | 0.00 | 0.00 | 0.00 | 86 | 1009.3 |
| 20260509073026 | 65 | 194 | 1.7 | 7.0 | 0.00 | 0.00 | 0.00 | 86 | 1009.4 |
| 20260509071524 | 64 | 192 | 5.2 | 7.8 | 0.00 | 0.00 | 0.00 | 87 | 1009.2 |
| 20260509070023 | 64 | 244 | 1.7 | 6.1 | 0.00 | 0.00 | 0.00 | 86 | 1009.5 |
| 20260509064522 | 65 | 252 | 0.9 | 4.3 | 0.00 | 0.00 | 0.00 | 86 | 1009.6 |
| 20260509063032 | 66 | 17 | 0.9 | 3.5 | 0.00 | 0.00 | 0.00 | 85 | 1009.3 |
| 20260509061521 | 65 | 18 | 1.7 | 14.8 | 0.00 | 0.00 | 0.00 | 86 | 1009.0 |
| 20260509060016 | 65 | 177 | 0.0 | 0.0 | 0.00 | 0.00 | 0.00 | 83 | 1008.4 |
| 20260509054514 | 66 | 177 | 0.0 | 2.6 | 0.00 | 0.00 | 0.00 | 82 | 1008.5 |
| 20260509053014 | 67 | 177 | 0.9 | 3.5 | 0.00 | 0.00 | 0.00 | 81 | 1008.4 |
| 20260509051508 | 68 | 177 | 0.9 | 1.7 | 0.00 | 0.00 | 0.00 | 80 | 1008.3 |
| 20260509050010 | 69 | 177 | 0.0 | 0.0 | 0.00 | 0.00 | 0.00 | 78 | 1008.2 |